DW3219 Weather Reports


Display with metric or nautical units.
time (UTC)temp
F
wind
direction
speed
MPH
gust
MPH
rain 1hr
in
rain 24hr
in
rain mn
in
humidity
%
barometer
mb
20260905130054 54 291 0.0 0.0 0.00 0.00 0.00 63 1007.8
20260905124554 54 292 0.0 0.0 0.00 0.00 0.00 65 1007.4
20260905123036 54 292 0.0 0.0 0.00 0.00 0.00 65 1007.6
20260905121534 54 348 1.0 8.0 0.00 0.00 0.00 65 1007.8
20260905120022 54 261 0.0 0.0 0.00 0.00 0.00 65 1007.5
20260905114517 56 279 0.0 0.0 0.00 0.00 0.00 61 1007.0
20260905113014 57 279 0.0 0.0 0.00 0.00 0.00 58 1007.0
20260905111516 57 273 0.0 2.0 0.00 0.00 0.00 58 1007.0
20260905110011 57 275 0.0 3.0 0.00 0.00 0.00 60 1006.7
20260905104507 57 305 0.0 2.0 0.00 0.00 0.00 57 1006.5
20260905103005 59 280 1.0 7.0 0.00 0.00 0.00 53 1006.4
20260905101502 59 311 0.0 0.0 0.00 0.00 0.00 52 1005.9
20260905100057 61 244 0.0 4.0 0.00 0.00 0.00 48 1006.1
20260905094545 62 275 0.0 1.0 0.00 0.00 0.00 47 1006.1
20260905093043 62 277 0.0 0.0 0.00 0.00 0.00 47 1005.7
20260905091544 62 278 0.0 3.0 0.00 0.00 0.00 47 1006.2
20260905084537 65 270 0.0 0.0 0.00 0.00 0.00 40 1005.7
20260905083044 66 265 0.0 0.0 0.00 0.00 0.00 39 1005.8
20260905081538 66 265 0.0 0.0 0.00 0.00 0.00 39 1005.9
20260905080017 67 279 0.0 0.0 0.00 0.00 0.00 38 1005.9
20260905074514 68 275 0.0 0.0 0.00 0.00 0.00 35 1005.4
20260905073012 68 281 0.0 0.0 0.00 0.00 0.00 35 1005.5
20260905071509 70 294 0.0 0.0 0.00 0.00 0.00 32 1005.2
20260905070013 70 279 0.0 6.0 0.00 0.00 0.00 31 1005.1
20260905064506 72 274 0.0 4.0 0.00 0.00 0.00 30 1005.2
20260905063004 73 348 0.0 4.0 0.00 0.00 0.00 31 1004.7
20260905061504 71 42 0.0 5.0 0.00 0.00 0.00 30 1004.5
20260905060051 70 9 0.0 0.0 0.00 0.00 0.00 28 1004.4
20260905054548 70 5 0.0 1.0 0.00 0.00 0.00 27 1004.4
20260905053044 71 344 0.0 5.0 0.00 0.00 0.00 27 1004.1
20260905051542 72 326 0.0 5.0 0.00 0.00 0.00 27 1003.8
20260905050038 72 329 0.0 5.0 0.00 0.00 0.00 29 1003.5
20260905044538 73 283 0.0 0.0 0.00 0.00 0.00 26 1003.3
20260905043030 75 258 0.0 4.0 0.00 0.00 0.00 25 1003.1
20260905041530 75 240 0.0 6.0 0.00 0.00 0.00 24 1003.0
20260905040016 75 240 0.0 0.0 0.00 0.00 0.00 23 1003.1
20260905034513 76 276 0.0 1.0 0.00 0.00 0.00 21 1003.0
20260905033010 78 271 0.0 3.0 0.00 0.00 0.00 19 1002.5
20260905031507 78 161 0.0 2.0 0.00 0.00 0.00 19 1002.2
20260905030004 80 211 0.0 3.0 0.00 0.00 0.00 19 1002.2
20260905024601 80 163 0.0 0.0 0.00 0.00 0.00 18 1002.0
20260905023057 82 185 0.0 0.0 0.00 0.00 0.00 17 1001.8
20260905021556 84 190 0.0 2.0 0.00 0.00 0.00 16 1001.6
20260905020032 86 175 0.0 3.0 0.00 0.00 0.00 14 1001.4
20260905014528 87 167 0.0 6.0 0.00 0.00 0.00 14 1001.2
20260905013013 88 167 2.0 8.0 0.00 0.00 0.00 13 1001.0
20260905011515 89 159 0.0 8.0 0.00 0.00 0.00 12 1000.8
20260905010008 90 117 2.0 15.0 0.00 0.00 0.00 12 1000.7
20260905004506 90 140 2.0 14.0 0.00 0.00 0.00 12 1000.6
20260905003004 91 110 4.0 16.0 0.00 0.00 0.00 12 1000.8
20260905001509 91 134 5.0 16.0 0.00 0.00 0.00 12 1000.7
20260905000003 91 120 3.0 16.0 0.00 0.00 0.00 12 1000.6
20260904234503 91 175 2.0 12.0 0.00 0.00 0.00 12 1000.8
20260904233046 92 116 2.0 13.0 0.00 0.00 0.00 12 1000.8
20260904231550 92 142 3.0 15.0 0.00 0.00 0.00 11 1000.8
20260904230049 92 153 0.0 8.0 0.00 0.00 0.00 11 1000.9
20260904224529 93 121 0.0 10.0 0.00 0.00 0.00 11 1000.9
20260904223028 92 183 0.0 11.0 0.00 0.00 0.00 11 1001.1
20260904221528 92 201 0.0 10.0 0.00 0.00 0.00 11 1001.1
20260904220026 93 163 1.0 6.0 0.00 0.00 0.00 11 1001.3
20260904214525 93 263 0.0 0.0 0.00 0.00 0.00 11 1001.3
20260904213123 92 167 0.0 5.0 0.00 0.00 0.00 10 1001.3
20260904211520 92 213 0.0 4.0 0.00 0.00 0.00 12 1001.3
20260904210016 91 108 0.0 1.0 0.00 0.00 0.00 13 1001.6
20260904204505 91 154 0.0 4.0 0.00 0.00 0.00 12 1001.7
20260904203005 91 116 0.0 2.0 0.00 0.00 0.00 12 1001.9
20260904201502 90 209 0.0 7.0 0.00 0.00 0.00 12 1002.0
20260904200004 89 121 0.0 9.0 0.00 0.00 0.00 12 1002.2
20260904194602 89 184 0.0 3.0 0.00 0.00 0.00 13 1002.3
20260904193059 89 78 0.0 1.0 0.00 0.00 0.00 14 1002.5
20260904191557 88 147 0.0 6.0 0.00 0.00 0.00 14 1002.7
20260904190054 87 170 0.0 2.0 0.00 0.00 0.00 14 1002.8
20260904184601 87 162 0.0 4.0 0.00 0.00 0.00 15 1003.1
20260904183040 86 154 0.0 3.0 0.00 0.00 0.00 15 1003.3
20260904181524 86 144 0.0 2.0 0.00 0.00 0.00 17 1003.5
20260904180021 85 181 0.0 3.0 0.00 0.00 0.00 16 1003.6
20260904174509 84 183 0.0 4.0 0.00 0.00 0.00 17 1003.8
20260904173006 82 126 0.0 4.0 0.00 0.00 0.00 18 1003.9
20260904171503 81 154 0.0 6.0 0.00 0.00 0.00 18 1003.9
20260904170003 77 288 0.0 2.0 0.00 0.00 0.00 26 1004.0
20260904164503 76 292 0.0 3.0 0.00 0.00 0.00 28 1004.2
20260904163002 74 265 0.0 2.0 0.00 0.00 0.00 27 1004.1
20260904161501 72 263 0.0 2.0 0.00 0.00 0.00 29 1004.1
20260904160001 71 285 0.0 4.0 0.00 0.00 0.00 31 1004.0
20260904154545 69 268 0.0 1.0 0.00 0.00 0.00 33 1004.0
20260904153042 67 258 0.0 0.0 0.00 0.00 0.00 35 1004.0
20260904151529 65 254 0.0 0.0 0.00 0.00 0.00 39 1004.0
20260904150034 63 254 0.0 0.0 0.00 0.00 0.00 44 1004.0
20260904144526 59 254 0.0 0.0 0.00 0.00 0.00 56 1004.2
20260904143025 57 255 0.0 0.0 0.00 0.00 0.00 61 1004.3
20260904141524 55 260 0.0 0.0 0.00 0.00 0.00 61 1004.2
20260904140023 52 266 0.0 2.0 0.00 0.00 0.00 64 1004.1
20260904134521 50 255 0.0 0.0 0.00 0.00 0.00 69 1004.0
20260904133020 49 255 0.0 0.0 0.00 0.00 0.00 72 1003.9
20260904131501 48 257 0.0 0.0 0.00 0.00 0.00 73 1003.6